,,,PA_Meas_PMT16A,,PR_Meas_QMR101_102,,RH_Meas_QMH101,,SR_Meas_QMS101,,TA_Meas_QMH101,,GenWind,,GenWind,
date,time,status,PA,status,PR,status,RH,status,SR,status,TA,status,DirAvg,status,SpdAvg,
2011-09-27, 00:00:04,VALID,1003.78,VALID,0,VALID,88.2204,VALID,0,VALID,24.5953,VALID,17,VALID,0.302344,
2011-09-27, 00:01:04,VALID,1003.77,VALID,0,VALID,88.4492,VALID,0.0815089,VALID,24.5953,VALID,25,VALID,0.444922,
2011-09-27, 00:02:04,VALID,1003.76,VALID,0,VALID,88.5026,VALID,0.0815089,VALID,24.5777,VALID,18,VALID,0.748438,
2011-09-27, 00:03:04,VALID,1003.74,VALID,0,VALID,88.5255,VALID,0,VALID,24.5369,VALID,26,VALID,0.41875,
2011-09-27, 00:04:04,VALID,1003.73,VALID,0,VALID,87.8618,VALID,0,VALID,24.5388,VALID,26,VALID,1.05742,
2011-09-27, 00:05:04,VALID,1003.72,VALID,0,VALID,87.9305,VALID,0,VALID,24.5369,VALID,23,VALID,0.699219,
2011-09-27, 00:06:04,VALID,1003.71,VALID,0,VALID,87.7779,VALID,0,VALID,24.5758,VALID,37,VALID,0.5875,
2011-09-27, 00:07:04,VALID,1003.73,VALID,0,VALID,87.4422,VALID,0,VALID,24.5972,VALID,22,VALID,0.647266,
2011-09-27, 00:08:04,VALID,1003.7,VALID,0,VALID,87.9686,VALID,0,VALID,24.5953,VALID,29,VALID,0.422656,
2011-09-27, 00:09:04,VALID,1003.72,VALID,0,VALID,88.1746,VALID,0,VALID,24.5777,VALID,29,VALID,0.526953,
2011-09-27, 00:10:04,VALID,1003.72,VALID,0,VALID,88.6705,VALID,0,VALID,24.5174,VALID,29,VALID,0.229297,
2011-09-27, 00:11:04,VALID,1003.72,VALID,0,VALID,88.6171,VALID,0,VALID,24.4998,VALID,29,VALID,0,
2011-09-27, 00:12:04,VALID,1003.73,VALID,0,VALID,89.029,VALID,0,VALID,24.4396,VALID,29,VALID,0,
2011-09-27, 00:13:04,VALID,1003.72,VALID,0,VALID,89.4791,VALID,0,VALID,24.3812,VALID,29,VALID,0.23125,
2011-09-27, 00:14:04,VALID,1003.75,VALID,0,VALID,89.7767,VALID,0.0815089,VALID,24.3441,VALID,29,VALID,0.179297,
2011-09-27, 00:15:04,VALID,1003.74,VALID,0,VALID,90.2191,VALID,0,VALID,24.2857,VALID,29,VALID,0.0871094,
2011-09-27, 00:16:04,VALID,1003.73,VALID,0,VALID,90.6921,VALID,0,VALID,24.2078,VALID,29,VALID,0,
2011-09-27, 00:17:04,VALID,1003.74,VALID,0,VALID,90.9897,VALID,0,VALID,24.1494,VALID,29,VALID,0.0597656,
2011-09-27, 00:18:04,VALID,1003.71,VALID,0,VALID,91.1804,VALID,0,VALID,24.1123,VALID,29,VALID,0.273828,
2011-09-27, 00:19:04,VALID,1003.74,VALID,0,VALID,91.3406,VALID,0,VALID,24.0326,VALID,29,VALID,0.285937,
2011-09-27, 00:20:04,VALID,1003.71,VALID,0,VALID,91.8136,VALID,0,VALID,24.0132,VALID,29,VALID,0.0164062,
2011-09-27, 00:21:04,VALID,1003.69,VALID,0,VALID,92.1492,VALID,0,VALID,23.9955,VALID,29,VALID,0,
2011-09-27, 00:22:04,VALID,1003.68,VALID,0,VALID,92.3705,VALID,0,VALID,23.9353,VALID,29,VALID,0.00117188,
2011-09-27, 00:23:04,VALID,1003.7,VALID,0,VALID,92.7519,VALID,0,VALID,23.8964,VALID,29,VALID,0.266406,
2011-09-27, 00:24:04,VALID,1003.67,VALID,0,VALID,92.6756,VALID,0,VALID,23.8185,VALID,29,VALID,0.350781,
2011-09-27, 00:25:04,VALID,1003.65,VALID,0,VALID,93.1029,VALID,0,VALID,23.8009,VALID,29,VALID,0.549219,
2011-09-27, 00:26:04,VALID,1003.63,VALID,0,VALID,92.9732,VALID,0,VALID,23.7212,VALID,29,VALID,0.376172,
2011-09-27, 00:27:04,VALID,1003.61,VALID,0,VALID,93.2859,VALID,0,VALID,23.7425,VALID,29,VALID,0.321875,
2011-09-27, 00:28:04,VALID,1003.6,VALID,0,VALID,93.4309,VALID,0,VALID,23.7017,VALID,29,VALID,0.36875,
2011-09-27, 00:29:04,VALID,1003.61,VALID,0,VALID,93.2783,VALID,0,VALID,23.7017,VALID,29,VALID,0.188281,
2011-09-27, 00:30:04,VALID,1003.6,VALID,0,VALID,93.5682,VALID,0,VALID,23.7017,VALID,29,VALID,0.167578,
2011-09-27, 00:31:04,VALID,1003.58,VALID,0,VALID,93.5453,VALID,0,VALID,23.7017,VALID,29,VALID,0.263281,
2011-09-27, 00:32:04,VALID,1003.58,VALID,0,VALID,93.408,VALID,0.0815089,VALID,23.6416,VALID,33,VALID,0.327734,
2011-09-27, 00:33:04,VALID,1003.57,VALID,0,VALID,93.4233,VALID,0.0815089,VALID,23.6221,VALID,35,VALID,0.267969,
2011-09-27, 00:34:04,VALID,1003.55,VALID,0,VALID,93.2478,VALID,0,VALID,23.6026,VALID,35,VALID,0.146484,
2011-09-27, 00:35:04,VALID,1003.55,VALID,0,VALID,93.6521,VALID,0.0815089,VALID,23.6026,VALID,35,VALID,0.34375,
2011-09-27, 00:36:04,VALID,1003.54,VALID,0,VALID,93.6445,VALID,0,VALID,23.5832,VALID,35,VALID,0.319141,
2011-09-27, 00:37:04,VALID,1003.51,VALID,0,VALID,93.1715,VALID,0,VALID,23.5637,VALID,35,VALID,0.292188,
2011-09-27, 00:38:04,VALID,1003.49,VALID,0,VALID,93.3851,VALID,0,VALID,23.5655,VALID,42,VALID,0.447656,
2011-09-27, 00:39:04,VALID,1003.51,VALID,0,VALID,93.5148,VALID,0,VALID,23.5443,VALID,42,VALID,0.19375,
2011-09-27, 00:40:04,VALID,1003.5,VALID,0,VALID,93.4996,VALID,0,VALID,23.546,VALID,46,VALID,0.401563,
2011-09-27, 00:41:04,VALID,1003.44,VALID,0,VALID,93.4996,VALID,0.0815089,VALID,23.4859,VALID,46,VALID,0.179297,
2011-09-27, 00:42:04,VALID,1003.44,VALID,0,VALID,93.6445,VALID,0.0815089,VALID,23.4859,VALID,46,VALID,0.257422,
2011-09-27, 00:43:04,VALID,1003.43,VALID,0,VALID,93.7437,VALID,0,VALID,23.4664,VALID,46,VALID,0.36875,
2011-09-27, 00:44:04,VALID,1003.41,VALID,0,VALID,93.7666,VALID,0.0815089,VALID,23.447,VALID,47,VALID,0.488672,
2011-09-27, 00:45:04,VALID,1003.41,VALID,0,VALID,93.942,VALID,0,VALID,23.4293,VALID,47,VALID,0.168359,
2011-09-27, 00:46:04,VALID,1003.42,VALID,0,VALID,94.0717,VALID,0,VALID,23.3886,VALID,47,VALID,0.616406,
2011-09-27, 00:47:04,VALID,1003.41,VALID,0,VALID,94.1175,VALID,0,VALID,23.3904,VALID,47,VALID,0.382031,
2011-09-27, 00:48:04,VALID,1003.37,VALID,0,VALID,94.2396,VALID,0,VALID,23.3691,VALID,47,VALID,0.260547,
2011-09-27, 00:49:04,VALID,1003.38,VALID,0,VALID,94.2548,VALID,0.0815089,VALID,23.3497,VALID,47,VALID,0.410547,
2011-09-27, 00:50:04,VALID,1003.38,VALID,0,VALID,94.3158,VALID,0.0815089,VALID,23.332,VALID,47,VALID,0.512109,
2011-09-27, 00:51:04,VALID,1003.35,VALID,0,VALID,94.354,VALID,0.0815089,VALID,23.3125,VALID,47,VALID,0.326953,
2011-09-27, 00:52:04,VALID,1003.35,VALID,0,VALID,94.4684,VALID,0,VALID,23.2913,VALID,47,VALID,0.348828,
2011-09-27, 00:53:04,VALID,1003.32,VALID,0,VALID,94.4761,VALID,0.0815089,VALID,23.2913,VALID,47,VALID,0.204297,
2011-09-27, 00:54:04,VALID,1003.33,VALID,0,VALID,94.5447,VALID,0.0815089,VALID,23.2524,VALID,47,VALID,0.520703,
2011-09-27, 00:55:04,VALID,1003.33,VALID,0,VALID,94.5295,VALID,0,VALID,23.2329,VALID,47,VALID,0.486328,
2011-09-27, 00:56:04,VALID,1003.31,VALID,0,VALID,94.5218,VALID,0.0815089,VALID,23.2329,VALID,47,VALID,0.145703,
2011-09-27, 00:57:04,VALID,1003.31,VALID,0,VALID,94.4532,VALID,0.0815089,VALID,23.2134,VALID,47,VALID,0.328125,
2011-09-27, 00:58:04,VALID,1003.32,VALID,0,VALID,94.3998,VALID,0,VALID,23.2329,VALID,47,VALID,0.0886719,
2011-09-27, 00:59:04,VALID,1003.3,VALID,0,VALID,94.415,VALID,0,VALID,23.2541,VALID,47,VALID,0.1,
2011-09-27, 01:00:04,VALID,1003.29,VALID,0,VALID,94.4684,VALID,0,VALID,23.2541,VALID,47,VALID,0.174609,
2011-09-27, 01:01:04,VALID,1003.28,VALID,0,VALID,94.415,VALID,0,VALID,23.2754,VALID,47,VALID,0,
2011-09-27, 01:02:04,VALID,1003.26,VALID,0,VALID,94.3387,VALID,0,VALID,23.2541,VALID,47,VALID,0.154687,
2011-09-27, 01:03:04,VALID,1003.26,VALID,0,VALID,94.4608,VALID,0,VALID,23.2736,VALID,47,VALID,0.160938,
2011-09-27, 01:04:04,VALID,1003.22,VALID,0,VALID,94.3616,VALID,0,VALID,23.2736,VALID,47,VALID,0,
2011-09-27, 01:05:04,VALID,1003.2,VALID,0,VALID,94.3158,VALID,0,VALID,23.332,VALID,95,VALID,0.611328,
2011-09-27, 01:06:04,VALID,1003.21,VALID,0,VALID,93.9344,VALID,0,VALID,23.4098,VALID,86,VALID,0.485156,
2011-09-27, 01:07:04,VALID,1003.16,VALID,0,VALID,93.6903,VALID,0,VALID,23.4098,VALID,71,VALID,0.204688,
2011-09-27, 01:08:04,VALID,1003.15,VALID,0,VALID,93.7818,VALID,0,VALID,23.4098,VALID,66,VALID,0.816797,
2011-09-27, 01:09:04,VALID,1003.12,VALID,0,VALID,93.5835,VALID,0,VALID,23.4894,VALID,76,VALID,0.394141,
2011-09-27, 01:10:04,VALID,1003.1,VALID,0,VALID,93.4462,VALID,0,VALID,23.447,VALID,76,VALID,0.184375,
2011-09-27, 01:11:04,VALID,1003.08,VALID,0,VALID,93.4538,VALID,0,VALID,23.4682,VALID,76,VALID,0.246875,
2011-09-27, 01:12:04,VALID,1003.08,VALID,0,VALID,93.5148,VALID,0,VALID,23.4487,VALID,76,VALID,0.276953,
2011-09-27, 01:13:04,VALID,1003.02,VALID,0,VALID,93.7361,VALID,0,VALID,23.4505,VALID,72,VALID,0.383203,
2011-09-27, 01:14:04,VALID,1003.01,VALID,0,VALID,93.8657,VALID,0,VALID,23.4098,VALID,72,VALID,0.0195313,
2011-09-27, 01:15:04,VALID,1002.98,VALID,0,VALID,93.8734,VALID,0,VALID,23.3904,VALID,72,VALID,0.289844,
2011-09-27, 01:16:04,VALID,1002.93,VALID,0,VALID,93.9802,VALID,0,VALID,23.3886,VALID,72,VALID,0.400391,
2011-09-27, 01:17:04,VALID,1002.89,VALID,0,VALID,94.0488,VALID,0.0815089,VALID,23.3886,VALID,72,VALID,0.223438,
2011-09-27, 01:18:04,VALID,1002.9,VALID,0,VALID,94.0946,VALID,0,VALID,23.3691,VALID,72,VALID,0.219141,
2011-09-27, 01:19:04,VALID,1002.85,VALID,0,VALID,94.2014,VALID,0,VALID,23.3497,VALID,74,VALID,0.388281,
2011-09-27, 01:20:04,VALID,1002.86,VALID,0,VALID,94.1633,VALID,0.0815089,VALID,23.3497,VALID,74,VALID,0.272656,
2011-09-27, 01:21:04,VALID,1002.83,VALID,0,VALID,94.209,VALID,0.0815089,VALID,23.332,VALID,74,VALID,0.180078,
2011-09-27, 01:22:04,VALID,1002.82,VALID,0,VALID,94.2853,VALID,0,VALID,23.2913,VALID,74,VALID,0,
2011-09-27, 01:23:04,VALID,1002.81,VALID,0,VALID,94.4379,VALID,0,VALID,23.2913,VALID,74,VALID,0.353906,
2011-09-27, 01:24:04,VALID,1002.77,VALID,0,VALID,94.5523,VALID,0.0815089,VALID,23.2736,VALID,74,VALID,0.323828,
2011-09-27, 01:25:04,VALID,1002.76,VALID,0,VALID,94.6591,VALID,0.0815089,VALID,23.1922,VALID,74,VALID,0.491797,
2011-09-27, 01:26:04,VALID,1002.73,VALID,0,VALID,94.7583,VALID,0.0815089,VALID,23.194,VALID,74,VALID,0.0789063,
2011-09-27, 01:27:04,VALID,1002.74,VALID,0,VALID,94.8804,VALID,0,VALID,23.1745,VALID,74,VALID,0.333594,
2011-09-27, 01:28:04,VALID,1002.76,VALID,0,VALID,94.9338,VALID,0.0815089,VALID,23.1745,VALID,74,VALID,0.402734,
2011-09-27, 01:29:04,VALID,1002.68,VALID,0,VALID,94.9719,VALID,0.0815089,VALID,23.1551,VALID,74,VALID,0.337891,
2011-09-27, 01:30:04,VALID,1002.68,VALID,0,VALID,95.0024,VALID,0.0815089,VALID,23.1551,VALID,74,VALID,0.375,
2011-09-27, 01:31:04,VALID,1002.67,VALID,0,VALID,95.094,VALID,0,VALID,23.1179,VALID,74,VALID,0.464844,
2011-09-27, 01:32:04,VALID,1002.66,VALID,0,VALID,95.1169,VALID,0,VALID,23.0984,VALID,74,VALID,0.363672,
2011-09-27, 01:33:04,VALID,1002.65,VALID,0,VALID,95.2313,VALID,0,VALID,23.0578,VALID,74,VALID,0.310547,
2011-09-27, 01:34:04,VALID,1002.64,VALID,0,VALID,95.3839,VALID,0,VALID,23.0578,VALID,74,VALID,0.214844,
2011-09-27, 01:35:04,VALID,1002.59,VALID,0,VALID,95.4831,VALID,0.0815089,VALID,23.0383,VALID,74,VALID,0.1625,
2011-09-27, 01:36:04,VALID,1002.58,VALID,0,VALID,95.5288,VALID,0,VALID,23.079,VALID,74,VALID,0.0925781,
2011-09-27, 01:37:04,VALID,1002.55,VALID,0,VALID,95.4907,VALID,0,VALID,23.0383,VALID,74,VALID,0,
2011-09-27, 01:38:04,VALID,1002.55,VALID,0,VALID,95.5441,VALID,0,VALID,23.0189,VALID,74,VALID,0,
2011-09-27, 01:39:04,VALID,1002.52,VALID,0,VALID,95.5441,VALID,0,VALID,23.0401,VALID,74,VALID,0,
2011-09-27, 01:40:04,VALID,1002.49,VALID,0,VALID,95.567,VALID,0,VALID,22.9994,VALID,74,VALID,0,
2011-09-27, 01:41:04,VALID,1002.45,VALID,0,VALID,95.6204,VALID,0,VALID,22.9994,VALID,74,VALID,0,
2011-09-27, 01:42:04,VALID,1002.45,VALID,0,VALID,95.7196,VALID,0,VALID,23.0206,VALID,62,VALID,0.549219,
2011-09-27, 01:43:04,VALID,1002.43,VALID,0,VALID,95.773,VALID,0,VALID,22.9994,VALID,56,VALID,0.55625,
2011-09-27, 01:44:04,VALID,1002.44,VALID,0,VALID,95.8111,VALID,0,VALID,22.9994,VALID,46,VALID,0.787891,
2011-09-27, 01:45:04,VALID,1002.44,VALID,0,VALID,95.7959,VALID,0,VALID,23.0206,VALID,43,VALID,0.676562,
2011-09-27, 01:46:04,VALID,1002.45,VALID,0,VALID,95.9408,VALID,0,VALID,22.9994,VALID,43,VALID,0.7875,
2011-09-27, 01:47:04,VALID,1002.46,VALID,0,VALID,95.9713,VALID,0,VALID,22.98,VALID,43,VALID,0.675391,
2011-09-27, 01:48:04,VALID,1002.49,VALID,0,VALID,96.0552,VALID,0,VALID,23.0189,VALID,40,VALID,0.755469,
2011-09-27, 01:49:04,VALID,1002.47,VALID,0,VALID,96.1163,VALID,0,VALID,23.0206,VALID,39,VALID,0.744141,
2011-09-27, 01:50:04,VALID,1002.45,VALID,0,VALID,96.1468,VALID,0,VALID,23.0189,VALID,38,VALID,0.601172,
2011-09-27, 01:51:04,VALID,1002.46,VALID,0,VALID,96.1468,VALID,0,VALID,23.0189,VALID,37,VALID,0.618359,
2011-09-27, 01:52:04,VALID,1002.41,VALID,0,VALID,96.1239,VALID,0,VALID,23.0189,VALID,36,VALID,0.585938,
2011-09-27, 01:53:04,VALID,1002.39,VALID,0,VALID,96.2078,VALID,0,VALID,23.0383,VALID,35,VALID,0.539453,
2011-09-27, 01:54:04,VALID,1002.35,VALID,0,VALID,96.2078,VALID,0,VALID,23.0595,VALID,35,VALID,0.472656,
2011-09-27, 01:55:04,VALID,1002.35,VALID,0,VALID,96.1926,VALID,0,VALID,23.0401,VALID,35,VALID,0.507031,
2011-09-27, 01:56:04,VALID,1002.34,VALID,0,VALID,96.162,VALID,0,VALID,23.0189,VALID,35,VALID,0.602734,
2011-09-27, 01:57:04,VALID,1002.3,VALID,0,VALID,96.1773,VALID,0,VALID,23.0189,VALID,35,VALID,0.465234,
2011-09-27, 01:58:04,VALID,1002.26,VALID,0,VALID,96.1163,VALID,0.0815089,VALID,23.0189,VALID,35,VALID,0.385156,
2011-09-27, 01:59:04,VALID,1002.26,VALID,0,VALID,96.1315,VALID,0,VALID,23.0401,VALID,35,VALID,0.534375,
2011-09-27, 02:00:04,VALID,1002.23,VALID,0,VALID,96.2612,VALID,0,VALID,23.0595,VALID,35,VALID,0.305859,
2011-09-27, 02:01:04,VALID,1002.22,VALID,0,VALID,96.1849,VALID,0,VALID,23.079,VALID,35,VALID,0.28125,
2011-09-27, 02:02:04,VALID,1002.18,VALID,0,VALID,96.1544,VALID,0,VALID,23.079,VALID,35,VALID,0.276953,
2011-09-27, 02:03:04,VALID,1002.15,VALID,0,VALID,96.246,VALID,0,VALID,23.0578,VALID,35,VALID,0.233984,
2011-09-27, 02:04:04,VALID,1002.15,VALID,0,VALID,96.2078,VALID,0,VALID,23.0772,VALID,35,VALID,0.0207031,
2011-09-27, 02:05:04,VALID,1002.14,VALID,0,VALID,96.3299,VALID,0,VALID,23.0967,VALID,54,VALID,0.465234,
2011-09-27, 02:06:04,VALID,1002.11,VALID,0,VALID,96.3146,VALID,0.0815089,VALID,23.1374,VALID,57,VALID,0.221484,
2011-09-27, 02:07:04,VALID,1002.11,VALID,0,VALID,96.4367,VALID,0,VALID,23.1763,VALID,57,VALID,0,
2011-09-27, 02:08:04,VALID,1002.1,VALID,0,VALID,96.4825,VALID,0,VALID,23.194,VALID,57,VALID,0,
2011-09-27, 02:09:04,VALID,1002.08,VALID,0,VALID,96.5053,VALID,0,VALID,23.2329,VALID,49,VALID,0.495313,
2011-09-27, 02:10:04,VALID,1002.1,VALID,0,VALID,96.3451,VALID,0,VALID,23.2718,VALID,12,VALID,0.229687,
2011-09-27, 02:11:04,VALID,1002.09,VALID,0,VALID,96.1315,VALID,0,VALID,23.3302,VALID,12,VALID,0.453125,
2011-09-27, 02:12:04,VALID,1002.06,VALID,0,VALID,96.0476,VALID,0.0815089,VALID,23.3886,VALID,12,VALID,0.43125,
2011-09-27, 02:13:04,VALID,1002.01,VALID,0,VALID,95.7882,VALID,0,VALID,23.4487,VALID,11,VALID,0.444141,
2011-09-27, 02:14:04,VALID,1002.03,VALID,0,VALID,95.3915,VALID,0,VALID,23.5071,VALID,11,VALID,0.241016,
2011-09-27, 02:15:04,VALID,1002.02,VALID,0,VALID,95.0482,VALID,0,VALID,23.585,VALID,11,VALID,0.239063,
2011-09-27, 02:16:04,VALID,1001.98,VALID,0,VALID,94.7965,VALID,0,VALID,23.6434,VALID,11,VALID,0.507031,
2011-09-27, 02:17:04,VALID,1001.95,VALID,0,VALID,94.415,VALID,0,VALID,23.6805,VALID,19,VALID,0.746875,
2011-09-27, 02:18:04,VALID,1001.96,VALID,0,VALID,93.9268,VALID,0,VALID,23.7796,VALID,18,VALID,0.482031,
2011-09-27, 02:19:04,VALID,1001.95,VALID,0,VALID,93.7132,VALID,0,VALID,23.7778,VALID,354,VALID,0.605469,
2011-09-27, 02:20:04,VALID,1001.93,VALID,0,VALID,93.6979,VALID,0,VALID,23.7796,VALID,3,VALID,0.189453,
2011-09-27, 02:21:04,VALID,1001.95,VALID,0,VALID,93.8047,VALID,0,VALID,23.7194,VALID,3,VALID,0.349609,
2011-09-27, 02:22:04,VALID,1001.95,VALID,0,VALID,93.9497,VALID,0,VALID,23.7212,VALID,3,VALID,0.607813,
2011-09-27, 02:23:04,VALID,1001.94,VALID,0,VALID,93.8657,VALID,0,VALID,23.661,VALID,3,VALID,0.473047,
2011-09-27, 02:24:04,VALID,1001.93,VALID,0,VALID,94.1251,VALID,0,VALID,23.6628,VALID,358,VALID,0.658984,
2011-09-27, 02:25:04,VALID,1001.96,VALID,0,VALID,94.3464,VALID,0,VALID,23.6239,VALID,21,VALID,0.388281,
2011-09-27, 02:26:04,VALID,1001.94,VALID,0,VALID,94.4303,VALID,0,VALID,23.5832,VALID,19,VALID,0.383984,
2011-09-27, 02:27:04,VALID,1001.96,VALID,0,VALID,94.4989,VALID,0,VALID,23.5655,VALID,17,VALID,0.562891,
2011-09-27, 02:28:04,VALID,1001.96,VALID,0,VALID,94.6439,VALID,0,VALID,23.5443,VALID,16,VALID,0.501953,
2011-09-27, 02:29:04,VALID,1001.93,VALID,0,VALID,94.682,VALID,0,VALID,23.5266,VALID,15,VALID,0.272656,
2011-09-27, 02:30:04,VALID,1001.97,VALID,0,VALID,94.7583,VALID,0,VALID,23.5071,VALID,15,VALID,0.537109,
2011-09-27, 02:31:04,VALID,1001.94,VALID,0,VALID,94.8728,VALID,0,VALID,23.4877,VALID,15,VALID,0.366797,
2011-09-27, 02:32:04,VALID,1001.94,VALID,0,VALID,94.8956,VALID,0,VALID,23.4859,VALID,15,VALID,0,
2011-09-27, 02:33:04,VALID,1001.95,VALID,0,VALID,94.949,VALID,0,VALID,23.4664,VALID,15,VALID,0.015625,
2011-09-27, 02:34:04,VALID,1001.96,VALID,0,VALID,95.0024,VALID,0,VALID,23.4487,VALID,15,VALID,0.034375,
2011-09-27, 02:35:04,VALID,1001.95,VALID,0,VALID,95.1016,VALID,0,VALID,23.4682,VALID,15,VALID,0.147656,
2011-09-27, 02:36:04,VALID,1001.95,VALID,0,VALID,94.949,VALID,0,VALID,23.4275,VALID,15,VALID,0.0996094,
2011-09-27, 02:37:04,VALID,1001.94,VALID,0,VALID,94.9567,VALID,0,VALID,23.4487,VALID,15,VALID,0,
2011-09-27, 02:38:04,VALID,1001.94,VALID,0,VALID,95.094,VALID,0.0815089,VALID,23.408,VALID,15,VALID,0,
2011-09-27, 02:39:04,VALID,1001.96,VALID,0,VALID,95.1093,VALID,0,VALID,23.4293,VALID,15,VALID,0.332422,
2011-09-27, 02:40:04,VALID,1001.95,VALID,0,VALID,94.9796,VALID,0,VALID,23.408,VALID,15,VALID,0.555469,
2011-09-27, 02:41:04,VALID,1001.94,VALID,0,VALID,95.2466,VALID,0,VALID,23.3691,VALID,9,VALID,0.599609,
2011-09-27, 02:42:04,VALID,1001.91,VALID,0,VALID,95.2618,VALID,0,VALID,23.3886,VALID,337,VALID,0.0976563,
2011-09-27, 02:43:04,VALID,1001.92,VALID,0,VALID,95.1245,VALID,0,VALID,23.3886,VALID,337,VALID,0,
2011-09-27, 02:44:04,VALID,1001.93,VALID,0,VALID,95.094,VALID,0,VALID,23.3886,VALID,337,VALID,0,
2011-09-27, 02:45:04,VALID,1001.93,VALID,0,VALID,95.1932,VALID,0,VALID,23.3709,VALID,337,VALID,0,
2011-09-27, 02:46:04,VALID,1001.92,VALID,0,VALID,95.2847,VALID,0,VALID,23.3497,VALID,337,VALID,0,
2011-09-27, 02:47:04,VALID,1001.92,VALID,0,VALID,95.3305,VALID,0,VALID,23.3302,VALID,337,VALID,0.344922,
2011-09-27, 02:48:04,VALID,1001.93,VALID,0,VALID,95.2084,VALID,0,VALID,23.332,VALID,337,VALID,0.078125,
2011-09-27, 02:49:04,VALID,1001.93,VALID,0,VALID,95.3763,VALID,0,VALID,23.332,VALID,337,VALID,0.0703125,
2011-09-27, 02:50:04,VALID,1001.93,VALID,0,VALID,95.4907,VALID,0,VALID,23.332,VALID,337,VALID,0.276953,
2011-09-27, 02:51:04,VALID,1001.94,VALID,0,VALID,95.4297,VALID,0,VALID,23.3125,VALID,2,VALID,0.545313,
2011-09-27, 02:52:04,VALID,1001.93,VALID,0,VALID,95.6356,VALID,0,VALID,23.3107,VALID,2,VALID,0.408594,
2011-09-27, 02:53:04,VALID,1001.89,VALID,0,VALID,95.4907,VALID,0.0815089,VALID,23.2718,VALID,2,VALID,0.333203,
2011-09-27, 02:54:04,VALID,1001.92,VALID,0,VALID,95.567,VALID,0,VALID,23.2736,VALID,2,VALID,0.525781,
2011-09-27, 02:55:04,VALID,1001.94,VALID,0,VALID,95.8721,VALID,0,VALID,23.2931,VALID,2,VALID,0.342187,
2011-09-27, 02:56:04,VALID,1001.94,VALID,0,VALID,95.7806,VALID,0,VALID,23.2524,VALID,34,VALID,0.614844,
2011-09-27, 02:57:04,VALID,1001.95,VALID,0,VALID,95.895,VALID,0.0815089,VALID,23.2718,VALID,34,VALID,0.210938,
2011-09-27, 02:58:04,VALID,1001.97,VALID,0,VALID,95.7882,VALID,0,VALID,23.2524,VALID,34,VALID,0.221875,
2011-09-27, 02:59:04,VALID,1001.98,VALID,0,VALID,95.7424,VALID,0.0815089,VALID,23.2329,VALID,34,VALID,0,
2011-09-27, 03:00:04,VALID,1002,VALID,0,VALID,95.7424,VALID,0,VALID,23.2329,VALID,34,VALID,0.278125,
2011-09-27, 03:01:04,VALID,1002,VALID,0,VALID,95.6051,VALID,0,VALID,23.194,VALID,34,VALID,0.158594,
2011-09-27, 03:02:04,VALID,1002,VALID,0,VALID,95.8187,VALID,0,VALID,23.2347,VALID,34,VALID,0.277734,
2011-09-27, 03:03:04,VALID,1002.02,VALID,0,VALID,95.7959,VALID,0,VALID,23.2347,VALID,35,VALID,0.418359,
2011-09-27, 03:04:04,VALID,1002.03,VALID,0,VALID,95.6509,VALID,0,VALID,23.1551,VALID,35,VALID,0.240234,
2011-09-27, 03:05:04,VALID,1002.03,VALID,0,VALID,95.6738,VALID,0,VALID,23.1551,VALID,35,VALID,0.133594,
2011-09-27, 03:06:04,VALID,1002.02,VALID,0,VALID,95.5746,VALID,0,VALID,23.1374,VALID,35,VALID,0.495313,
2011-09-27, 03:07:04,VALID,1002.07,VALID,0,VALID,95.6204,VALID,0,VALID,23.1179,VALID,35,VALID,0.0648438,
2011-09-27, 03:08:04,VALID,1002.05,VALID,0,VALID,95.8111,VALID,0,VALID,23.0967,VALID,35,VALID,0.266016,
2011-09-27, 03:09:04,VALID,1002.05,VALID,0,VALID,96.1086,VALID,0,VALID,23.1374,VALID,35,VALID,0.173828,
2011-09-27, 03:10:04,VALID,1002.03,VALID,0,VALID,96.1239,VALID,0,VALID,23.1374,VALID,35,VALID,0.147656,
2011-09-27, 03:11:04,VALID,1002.05,VALID,0,VALID,96.0857,VALID,0,VALID,23.1162,VALID,35,VALID,0.141797,
2011-09-27, 03:12:04,VALID,1002.06,VALID,0,VALID,96.0552,VALID,0.0815089,VALID,23.0967,VALID,35,VALID,0.190234,
2011-09-27, 03:13:04,VALID,1002.06,VALID,0,VALID,96.1544,VALID,0,VALID,23.0755,VALID,35,VALID,0.0472656,
2011-09-27, 03:14:04,VALID,1002.08,VALID,0,VALID,96.1392,VALID,0,VALID,23.0967,VALID,35,VALID,0,
2011-09-27, 03:15:04,VALID,1002.12,VALID,0,VALID,96.1086,VALID,0,VALID,23.1179,VALID,35,VALID,0.180078,
2011-09-27, 03:16:04,VALID,1002.14,VALID,0,VALID,96.1773,VALID,0,VALID,23.1179,VALID,35,VALID,0.00820312,
2011-09-27, 03:17:04,VALID,1002.12,VALID,0,VALID,96.1926,VALID,0,VALID,23.0967,VALID,35,VALID,0.084375,
2011-09-27, 03:18:04,VALID,1002.11,VALID,0,VALID,96.1926,VALID,0,VALID,23.0967,VALID,35,VALID,0.154687,
2011-09-27, 03:19:04,VALID,1002.1,VALID,0,VALID,96.2002,VALID,0,VALID,23.0967,VALID,35,VALID,0.120312,
2011-09-27, 03:20:04,VALID,1002.11,VALID,0,VALID,96.3756,VALID,0,VALID,23.1356,VALID,35,VALID,0.142188,
2011-09-27, 03:21:04,VALID,1002.1,VALID,0,VALID,96.429,VALID,0.0815089,VALID,23.1957,VALID,35,VALID,0.300391,
2011-09-27, 03:22:04,VALID,1002.08,VALID,0,VALID,96.5359,VALID,0,VALID,23.2134,VALID,35,VALID,0.149609,
2011-09-27, 03:23:04,VALID,1002.11,VALID,0,VALID,96.5282,VALID,0,VALID,23.2329,VALID,35,VALID,0.0996094,
2011-09-27, 03:24:04,VALID,1002.11,VALID,0,VALID,96.5206,VALID,0,VALID,23.2134,VALID,35,VALID,0.257422,
2011-09-27, 03:25:04,VALID,1002.11,VALID,0,VALID,96.5664,VALID,0.0815089,VALID,23.2329,VALID,35,VALID,0.348047,
2011-09-27, 03:26:04,VALID,1002.09,VALID,0,VALID,96.5435,VALID,0,VALID,23.2329,VALID,35,VALID,0.252734,
2011-09-27, 03:27:04,VALID,1002.09,VALID,0,VALID,96.6045,VALID,0,VALID,23.2311,VALID,35,VALID,0.210156,
2011-09-27, 03:28:04,VALID,1002.11,VALID,0,VALID,96.5969,VALID,0,VALID,23.2931,VALID,35,VALID,0.255078,
2011-09-27, 03:29:04,VALID,1002.09,VALID,0,VALID,96.5816,VALID,0,VALID,23.2913,VALID,35,VALID,0.231641,
2011-09-27, 03:30:04,VALID,1002.1,VALID,0,VALID,96.5816,VALID,0,VALID,23.2718,VALID,35,VALID,0.182031,
2011-09-27, 03:31:04,VALID,1002.1,VALID,0,VALID,96.5282,VALID,0,VALID,23.2736,VALID,41,VALID,0.360156,
2011-09-27, 03:32:04,VALID,1002.11,VALID,0,VALID,96.6274,VALID,0,VALID,23.3125,VALID,55,VALID,0.360938,
2011-09-27, 03:33:04,VALID,1002.09,VALID,0,VALID,96.574,VALID,0,VALID,23.2913,VALID,55,VALID,0.332812,
2011-09-27, 03:34:04,VALID,1002.08,VALID,0,VALID,96.5206,VALID,0,VALID,23.2931,VALID,55,VALID,0.280859,
2011-09-27, 03:35:04,VALID,1002.07,VALID,0,VALID,96.513,VALID,0,VALID,23.2931,VALID,55,VALID,0.20625,
2011-09-27, 03:36:04,VALID,1002.08,VALID,0,VALID,96.5664,VALID,0,VALID,23.2913,VALID,62,VALID,0.198047,
2011-09-27, 03:37:04,VALID,1002.07,VALID,0,VALID,96.6427,VALID,0,VALID,23.332,VALID,72,VALID,0.576953,
2011-09-27, 03:38:04,VALID,1002.07,VALID,0,VALID,96.7342,VALID,0,VALID,23.3904,VALID,73,VALID,0.494922,
2011-09-27, 03:39:04,VALID,1002.07,VALID,0,VALID,96.8181,VALID,0,VALID,23.4487,VALID,73,VALID,0.358594,
2011-09-27, 03:40:04,VALID,1002.05,VALID,0,VALID,96.841,VALID,0,VALID,23.4664,VALID,81,VALID,0.35625,
2011-09-27, 03:41:04,VALID,1002.07,VALID,0,VALID,96.8181,VALID,0,VALID,23.5071,VALID,81,VALID,0,
2011-09-27, 03:42:05,VALID,1002.07,VALID,0,VALID,96.7952,VALID,0,VALID,23.5266,VALID,81,VALID,0.0140625,
2011-09-27, 03:43:05,VALID,1002.03,VALID,0,VALID,96.8105,VALID,0,VALID,23.5655,VALID,81,VALID,0.25,
2011-09-27, 03:44:05,VALID,1002.05,VALID,0,VALID,96.5664,VALID,0,VALID,23.4859,VALID,57,VALID,0.574219,
2011-09-27, 03:45:05,VALID,1002.03,VALID,0,VALID,96.6198,VALID,0,VALID,23.5248,VALID,55,VALID,0.325781,